Buckeye, AZ

10:42 AM MST on January 24, 2017 (GMT -0700)
Buckeye Municipal

Weather History for KBXK - October, 2011

Change the Weather History Date:

Saturday, October 22, 2011

  Actual Average (KGYR) Record (KGYR)
Temperature  
Mean Temperature 78 °F -  
Max Temperature 93 °F 81 °F 102 °F (2003)
Min Temperature 64 °F 55 °F 41 °F (1996)
Cooling Degree Days 14    
Growing Degree Days 28 (Base 50)    
Moisture  
Dew Point 34 °F    
Average Humidity 21    
Maximum Humidity 37    
Minimum Humidity 11    
Precipitation  
Precipitation 0.00 in - - ()
Sea Level Pressure  
Sea Level Pressure 29.98 in    
Wind  
Wind Speed 7 mph (NE)    
Max Wind Speed 12 mph    
Max Gust Speed -    
Visibility 10 miles    
Events      
Averages and records for this station are not official NWS values.
T = Trace of Precipitation, MM = Missing Value Source: NWS Daily Summary

Daily Weather History Graph

Daily Weather History Graph

Search for Another Location

Airport or City:

Trip Planner

Search our weather history database for the weather conditions in past years. The results will help you decide how hot, cold, wet, or windy it might be!

Date:

Astronomy

Oct. 22, 2011 Rise Set
Actual Time 6:40 AM MST 5:49 PM MST
Civil Twilight 6:15 AM MST 6:14 PM MST
Nautical Twilight 5:46 AM MST 6:43 PM MST
Astronomical Twilight 5:17 AM MST 7:12 PM MST
Moon 1:56 AM MST (10/22) 2:57 PM MST (10/22)
Length of Visible Light 11h 58m
Length of Day
11h 08m
Waning Crescent, 22% of the Moon is Illuminated
Oct 22
Waning Crescent
Oct 26
New
Nov 2
First Quarter
Nov 10
Full
Nov 18
Last Quarter

Hourly Weather History & Observations

Time (MST) Temp. Dew Point Humidity Pressure Visibility Wind Dir Wind Speed Gust Speed Precip Events Conditions
12:15 AM 73.4 °F 33.8 °F 23% 29.99 in 10.0 mi NNW 10.4 mph - N/A   Unknown
12:35 AM 73.4 °F 32.0 °F 22% 29.99 in 10.0 mi NNW 10.4 mph - N/A   Unknown
12:55 AM 71.6 °F 32.0 °F 23% 29.99 in 10.0 mi NNW 10.4 mph - N/A   Clear
1:15 AM 71.6 °F 32.0 °F 23% 29.99 in 10.0 mi NNW 9.2 mph - N/A   Clear
1:35 AM 71.6 °F 32.0 °F 23% 30.00 in 10.0 mi North 5.8 mph - N/A   Clear
1:55 AM 69.8 °F 32.0 °F 25% 30.00 in 10.0 mi NNW 8.1 mph - N/A   Clear
2:15 AM 71.6 °F 32.0 °F 23% 29.99 in 10.0 mi North 9.2 mph - N/A   Clear
2:35 AM 69.8 °F 32.0 °F 25% 30.00 in 10.0 mi North 8.1 mph - N/A   Clear
2:55 AM 68.0 °F 32.0 °F 26% 29.99 in 10.0 mi North 8.1 mph - N/A   Clear
3:15 AM 68.0 °F 32.0 °F 26% 30.00 in 10.0 mi NE 4.6 mph - N/A   Clear
3:35 AM 66.2 °F 32.0 °F 28% 30.00 in 10.0 mi NW 5.8 mph - N/A   Unknown
4:35 AM 68.0 °F 30.2 °F 24% 29.99 in 10.0 mi North 10.4 mph - N/A   Unknown
4:55 AM 68.0 °F 30.2 °F 24% 30.00 in 10.0 mi Calm Calm - N/A   Unknown
5:15 AM 66.2 °F 32.0 °F 28% 30.00 in 10.0 mi NE 3.5 mph - N/A   Unknown
5:35 AM 64.4 °F 33.8 °F 32% 30.01 in 10.0 mi NE 6.9 mph - N/A   Unknown
5:55 AM 71.6 °F 32.0 °F 23% 30.01 in 10.0 mi NE 3.5 mph - N/A   Unknown
6:15 AM 68.0 °F 32.0 °F 26% 30.01 in 10.0 mi ENE 3.5 mph - N/A   Unknown
6:35 AM 66.2 °F 30.2 °F 26% 30.01 in 10.0 mi North 3.5 mph - N/A   Unknown
6:55 AM 66.2 °F 30.2 °F 26% 30.01 in 10.0 mi North 5.8 mph - N/A   Clear
7:15 AM 68.0 °F 30.2 °F 24% 30.02 in 10.0 mi NE 4.6 mph - N/A   Clear
7:35 AM 64.4 °F 37.4 °F 37% 30.03 in 10.0 mi ENE 3.5 mph - N/A   Clear
7:55 AM 66.2 °F 35.6 °F 32% 30.03 in 10.0 mi Calm Calm - N/A   Clear
8:35 AM 73.4 °F 32.0 °F 22% 30.04 in 10.0 mi Calm Calm - N/A   Clear
8:55 AM 75.2 °F 39.2 °F 27% 30.04 in 10.0 mi Calm Calm - N/A   Clear
9:15 AM 73.4 °F 39.2 °F 29% 30.04 in 10.0 mi South 3.5 mph - N/A   Clear
9:35 AM 75.2 °F 37.4 °F 25% 30.04 in 10.0 mi Calm Calm - N/A   Clear
9:55 AM 78.8 °F 35.6 °F 21% 30.04 in 10.0 mi Calm Calm - N/A   Clear
10:15 AM 80.6 °F 33.8 °F 18% 30.04 in 10.0 mi North 3.5 mph - N/A   Clear
10:35 AM 84.2 °F 32.0 °F 15% 30.04 in 10.0 mi Calm Calm - N/A   Clear
11:15 AM 86.0 °F 32.0 °F 14% 30.03 in 10.0 mi ENE 9.2 mph - N/A   Clear
11:35 AM 89.6 °F 32.0 °F 13% 30.02 in 10.0 mi ENE 10.4 mph - N/A   Clear
11:55 AM 89.6 °F 33.8 °F 14% 30.01 in 10.0 mi East 11.5 mph - N/A   Clear
12:15 PM 91.4 °F 35.6 °F 14% 30.00 in 10.0 mi East 6.9 mph - N/A   Clear
12:35 PM 89.6 °F 37.4 °F 16% 29.99 in 10.0 mi SE 8.1 mph - N/A   Clear
12:55 PM 89.6 °F 37.4 °F 16% 29.98 in 10.0 mi SE 5.8 mph - N/A   Clear
1:15 PM 91.4 °F 37.4 °F 15% 29.97 in 10.0 mi SE 5.8 mph - N/A   Clear
1:35 PM 91.4 °F 39.2 °F 16% 29.97 in 10.0 mi SSE 6.9 mph - N/A   Clear
1:55 PM 91.4 °F 35.6 °F 14% 29.96 in 10.0 mi SSE 6.9 mph - N/A   Clear
2:15 PM 93.2 °F 35.6 °F 13% 29.95 in 10.0 mi SSE 5.8 mph - N/A   Clear
2:35 PM 93.2 °F 33.8 °F 12% 29.95 in 10.0 mi South 3.5 mph - N/A   Clear
2:55 PM 93.2 °F 35.6 °F 13% 29.94 in 10.0 mi South 5.8 mph - N/A   Clear
3:15 PM 93.2 °F 32.0 °F 11% 29.94 in 10.0 mi SSE 6.9 mph - N/A   Clear
3:35 PM 93.2 °F 32.0 °F 11% 29.94 in 9.0 mi South 4.6 mph - N/A   Clear
4:15 PM 93.2 °F 35.6 °F 13% 29.92 in 9.0 mi SSE 6.9 mph - N/A   Clear
4:35 PM 93.2 °F 35.6 °F 13% 29.92 in 10.0 mi SSE 5.8 mph - N/A   Clear
4:55 PM 91.4 °F 39.2 °F 16% 29.91 in 10.0 mi SSE 5.8 mph - N/A   Clear
5:15 PM 89.6 °F 41.0 °F 18% 29.91 in 8.0 mi South 4.6 mph - N/A   Clear
5:35 PM 86.0 °F 44.6 °F 23% 29.92 in 5.0 mi South 4.6 mph - N/A   Clear
6:15 PM 84.2 °F 41.0 °F 22% 29.92 in 10.0 mi SSW 4.6 mph - N/A   Clear
6:55 PM 80.6 °F 37.4 °F 21% 29.92 in 10.0 mi WNW 3.5 mph - N/A   Clear
7:15 PM 78.8 °F 35.6 °F 21% 29.93 in 10.0 mi WNW 4.6 mph - N/A   Unknown
7:35 PM 78.8 °F 32.0 °F 18% 29.93 in 10.0 mi NNW 5.8 mph - N/A   Clear
7:55 PM 75.2 °F 32.0 °F 21% 29.93 in 10.0 mi NNW 8.1 mph - N/A   Unknown
8:35 PM 75.2 °F 28.4 °F 18% 29.94 in 10.0 mi NNW 8.1 mph - N/A   Clear
8:55 PM 75.2 °F 28.4 °F 18% 29.94 in 10.0 mi North 8.1 mph - N/A   Clear
9:15 PM 75.2 °F 28.4 °F 18% 29.95 in 10.0 mi North 10.4 mph - N/A   Clear
9:35 PM 75.2 °F 26.6 °F 17% 29.95 in 10.0 mi North 9.2 mph - N/A   Clear
9:55 PM 75.2 °F 26.6 °F 17% 29.95 in 10.0 mi North 11.5 mph - N/A   Clear
10:15 PM 75.2 °F 26.6 °F 17% 29.95 in 10.0 mi NNW 10.4 mph - N/A   Unknown
10:35 PM 73.4 °F 24.8 °F 16% 29.95 in 10.0 mi North 11.5 mph - N/A   Unknown
10:55 PM 75.2 °F 24.8 °F 15% 29.95 in 10.0 mi North 10.4 mph - N/A   Unknown
11:15 PM 75.2 °F 24.8 °F 15% 29.95 in 10.0 mi North 11.5 mph - N/A   Unknown
11:35 PM 75.2 °F 24.8 °F 15% 29.95 in 10.0 mi North 10.4 mph - N/A   Unknown
11:55 PM 75.2 °F 24.8 °F 15% 29.95 in 10.0 mi North 10.4 mph - N/A   Unknown